SV2BZQ-2 Thessalonik GR current weather conditions

sailwx.info

Wind from 151

Air temperature 19.4° C
Dewpoint 15.5° C

Last reported at 2017-Oct-17 18:08 UTC.
Time now 2017-Oct-17 19:14 UTC

Location: N 40°41' E 022°51'.
View on Google Maps.

See reports from other nearby stations

  
Tides and Currents Weather Stations Pressure Air Temp Water Temp Dewpoint Dewpoint Depression Visibility Wind Speed Wind Dir Waves Ship Positions
date/time (UTC)wind fromknots sea level pressurealtimeterstation pressurevisibilityair tempwater tempwave heightnotes
2017-Oct-17 18:08 151 19.4
2017-Oct-17 18:04 151 19.4
2017-Oct-17 17:58 150 19.4
2017-Oct-17 17:54 150 20.0
2017-Oct-17 17:50 150 20.0
2017-Oct-17 17:44 151 20.0
2017-Oct-17 17:40 151 20.0
2017-Oct-17 17:33 150 20.6
2017-Oct-17 17:29 151 20.6
2017-Oct-17 17:24 151 20.6
2017-Oct-17 17:19 150 20.6
2017-Oct-17 17:13 151 20.6
2017-Oct-17 17:09 151 21.1
2017-Oct-17 17:05 150 21.1
2017-Oct-17 16:59 151 21.1
2017-Oct-17 16:54 150 21.1
2017-Oct-17 16:49 150 21.1
2017-Oct-17 16:44 151 21.1
2017-Oct-17 16:39 151 21.7
2017-Oct-17 16:34 151 21.7
2017-Oct-17 16:29 150 21.7
2017-Oct-17 16:24 151 21.7
2017-Oct-17 16:19 151 21.7
2017-Oct-17 16:14 151 22.2
2017-Oct-17 16:09 150 22.2
2017-Oct-17 16:04 151 22.8
2017-Oct-17 16:00 150 22.8
2017-Oct-17 15:54 151 23.3
2017-Oct-17 15:49 151 23.3
2017-Oct-17 15:44 150 23.3
2017-Oct-17 15:39 151 23.9
2017-Oct-17 15:34 151 23.9
2017-Oct-17 15:29 151 24.4
2017-Oct-17 15:25 151 24.4
2017-Oct-17 15:19 169 24.4
2017-Oct-17 15:14 175 24.4
2017-Oct-17 15:09 178 24.4
2017-Oct-17 15:04 155 25.0
2017-Oct-17 14:59 167 25.0
2017-Oct-17 14:54 171 25.0
2017-Oct-17 14:49 178 25.6
2017-Oct-17 14:44 164 25.6
2017-Oct-17 14:39 174 26.1
2017-Oct-17 14:34 186 26.1
2017-Oct-17 14:28 196 26.1
2017-Oct-17 14:24 172 26.1
2017-Oct-17 14:18 169 0 gusting 3 26.1
2017-Oct-17 14:14 174 0 gusting 3 26.7
2017-Oct-17 14:10 194 0 gusting 4 26.7
2017-Oct-17 14:03 193 1 gusting 4 26.7
2017-Oct-17 13:59 215 0 gusting 3 26.7
2017-Oct-17 13:53 236 26.7
2017-Oct-17 13:49 236 26.7
2017-Oct-17 13:43 236 26.7
2017-Oct-17 13:39 236 26.7
2017-Oct-17 13:35 244 0 gusting 3 26.7
2017-Oct-17 13:29 245 0 gusting 3 26.7
2017-Oct-17 13:24 213 26.7
2017-Oct-17 13:18 253 26.7
2017-Oct-17 13:14 254 26.7
2017-Oct-17 13:08 254 26.7
2017-Oct-17 13:04 262 26.1
2017-Oct-17 12:58 262 0 gusting 3 26.1
2017-Oct-17 12:54 262 1 gusting 3 26.1
2017-Oct-17 12:48 252 0 gusting 2 26.1
2017-Oct-17 12:44 237 0 gusting 2 26.1
2017-Oct-17 12:38 236 0 gusting 2 25.6
2017-Oct-17 12:34 236 0 gusting 2 25.6
2017-Oct-17 12:30 235 25.6
2017-Oct-17 12:25 233 25.6
2017-Oct-17 12:19 255 0 gusting 3 25.6
2017-Oct-17 12:13 236 0 gusting 3 26.1
2017-Oct-17 12:09 320 0 gusting 3 26.1
2017-Oct-17 12:04 242 26.1
2017-Oct-17 11:59 242 0 gusting 2 26.1
2017-Oct-17 11:53 185 26.1
2017-Oct-17 11:49 184 25.6
2017-Oct-17 11:43 192 0 gusting 5 25.6
2017-Oct-17 11:39 257 0 gusting 5 25.6
2017-Oct-17 11:33 230 0 gusting 4 25.6
2017-Oct-17 11:28 230 0 gusting 5 25.6
2017-Oct-17 11:25 190 0 gusting 5 25.6
2017-Oct-17 11:18 182 25.6
2017-Oct-17 11:14 187 0 gusting 2 25.6
2017-Oct-17 11:08 237 0 gusting 2 25.6
2017-Oct-17 11:04 238 0 gusting 3 25.6
2017-Oct-17 10:58 225 0 gusting 3 26.1
2017-Oct-17 10:54 176 25.6
2017-Oct-17 10:49 223 0 gusting 3 25.6
2017-Oct-17 10:43 229 1 gusting 3 25.6
2017-Oct-17 10:39 228 0 gusting 3 25.6
2017-Oct-17 10:33 229 25.6
2017-Oct-17 10:29 229 0 gusting 3 25.6
2017-Oct-17 10:23 229 0 gusting 4 25.6
2017-Oct-17 10:19 229 0 gusting 4 25.6
2017-Oct-17 10:13 218 0 gusting 4 25.0
2017-Oct-17 10:09 219 0 gusting 4 25.0
2017-Oct-17 10:05 232 24.4
2017-Oct-17 09:59 233 24.4
2017-Oct-17 09:53 234 0 gusting 2 24.4
2017-Oct-17 09:49 235 0 gusting 5 24.4
2017-Oct-17 09:43 234 0 gusting 5 23.9
2017-Oct-17 09:40 248 23.9
2017-Oct-17 09:35 249 0 gusting 3 23.3
2017-Oct-17 09:29 249 1 gusting 4 23.3
2017-Oct-17 09:25 248 0 gusting 4 23.3
2017-Oct-17 09:19 244 0 gusting 3 23.3
2017-Oct-17 09:15 249 22.8
2017-Oct-17 09:09 250 22.8
2017-Oct-17 09:04 250 22.8
2017-Oct-17 08:58 249 22.2
2017-Oct-17 08:54 249 22.2
2017-Oct-17 08:48 249 21.7
2017-Oct-17 08:44 250 21.7
2017-Oct-17 08:40 250 21.1
2017-Oct-17 08:34 249 21.1
2017-Oct-17 08:29 250 21.1
2017-Oct-17 08:23 248 21.1
2017-Oct-17 08:19 248 20.6
2017-Oct-17 08:13 248 20.6
2017-Oct-17 08:09 249 20.0
2017-Oct-17 08:04 265 19.4
2017-Oct-17 07:59 294 18.9
2017-Oct-17 07:54 294 18.9
2017-Oct-17 07:48 294 18.3
2017-Oct-17 07:44 294 18.3
2017-Oct-17 07:38 294 18.3
2017-Oct-17 07:35 294 17.8
2017-Oct-17 07:27 294 17.8
2017-Oct-17 07:23 294 17.2
2017-Oct-17 07:19 294 17.2
2017-Oct-17 07:13 294 16.7
2017-Oct-17 07:09 294 16.1
2017-Oct-17 07:04 294 16.1
2017-Oct-17 06:58 294 15.6
2017-Oct-17 06:55 294 15.6
2017-Oct-17 06:48 294 15.0
2017-Oct-17 06:44 294 15.0
2017-Oct-17 06:38 294 14.4
2017-Oct-17 06:34 294 14.4
2017-Oct-17 06:30 294 14.4
2017-Oct-17 06:23 294 13.9
2017-Oct-17 06:19 294 13.9
2017-Oct-17 06:13 294 13.3
2017-Oct-17 06:09 294 13.3
2017-Oct-17 06:03 294 13.3
2017-Oct-17 05:59 294 13.3
2017-Oct-17 05:53 295 12.8
2017-Oct-17 05:49 295 12.8
2017-Oct-17 05:43 294 12.8
2017-Oct-17 05:39 295 12.2
2017-Oct-17 05:35 295 12.2
2017-Oct-17 05:29 294 12.2
2017-Oct-17 05:25 295 12.2
2017-Oct-17 05:19 295 12.2
2017-Oct-17 05:15 295 12.2
2017-Oct-17 05:08 295 12.2
2017-Oct-17 05:04 295 12.2
2017-Oct-17 04:58 296 12.2
2017-Oct-17 04:54 296 12.2
2017-Oct-17 04:49 296 12.2
2017-Oct-17 04:44 295 12.2
2017-Oct-17 04:39 295 12.2
2017-Oct-17 04:33 296 12.2
2017-Oct-17 04:29 297 12.2
2017-Oct-17 04:23 297 12.2
2017-Oct-17 04:19 297 12.2
2017-Oct-17 04:13 297 12.2
2017-Oct-17 04:09 297 12.2
2017-Oct-17 04:03 296 12.8
2017-Oct-17 03:59 298 12.8
2017-Oct-17 03:53 298 12.8
2017-Oct-17 03:50 298 12.8
2017-Oct-17 03:44 298 12.8
2017-Oct-17 03:39 298 12.8
2017-Oct-17 03:34 298 12.2
2017-Oct-17 03:29 298 12.8
2017-Oct-17 03:24 298 12.8
2017-Oct-17 03:19 298 12.8
2017-Oct-17 03:14 298 12.8
2017-Oct-17 03:09 298 12.8
2017-Oct-17 03:04 298 12.8
2017-Oct-17 02:59 298 12.8
2017-Oct-17 02:53 298 12.8
2017-Oct-17 02:49 298 12.8
2017-Oct-17 02:43 298 12.8
2017-Oct-17 02:39 298 12.8
2017-Oct-17 02:33 298 12.8
2017-Oct-17 02:29 298 12.8
2017-Oct-17 02:25 298 13.3
2017-Oct-17 02:19 298 13.3
2017-Oct-17 02:15 298 13.3
2017-Oct-17 02:09 298 13.3
2017-Oct-17 02:04 298 13.3
2017-Oct-17 01:58 298 1 gusting 4 13.3
2017-Oct-17 01:54 299 2 gusting 4 13.3
2017-Oct-17 01:48 295 2 gusting 5 13.3
2017-Oct-17 01:44 302 3 gusting 6 13.3
2017-Oct-17 01:38 304 3 gusting 6 13.3
2017-Oct-17 01:34 303 2 gusting 6 13.3
2017-Oct-17 01:29 300 3 gusting 6 13.9
2017-Oct-17 01:23 291 3 gusting 6 13.9
2017-Oct-17 01:19 298 2 gusting 6 13.9
2017-Oct-17 01:13 296 2 gusting 6 13.9
2017-Oct-17 01:09 299 3 gusting 6 13.9
2017-Oct-17 01:03 291 3 gusting 6 13.9
2017-Oct-17 01:00 296 2 gusting 5 13.9
2017-Oct-17 00:53 296 3 gusting 6 13.9
2017-Oct-17 00:49 294 3 gusting 6 13.9
2017-Oct-17 00:44 291 2 gusting 6 13.9
2017-Oct-17 00:39 299 2 gusting 4 14.4
2017-Oct-17 00:35 299 2 gusting 5 13.9
2017-Oct-17 00:29 300 2 gusting 6 14.4
2017-Oct-17 00:25 304 1 gusting 4 14.4
2017-Oct-17 00:18 310 2 gusting 4 14.4
2017-Oct-17 00:14 294 2 gusting 4 14.4
2017-Oct-17 00:08 296 1 gusting 3 14.4
2017-Oct-17 00:04 300 0 gusting 2 14.4
2017-Oct-16 23:58 300 0 gusting 2 14.4
2017-Oct-16 23:52 300 0 gusting 2 14.4
2017-Oct-16 23:49 302 0 gusting 2 14.4
2017-Oct-16 23:43 302 0 gusting 2 14.4
2017-Oct-16 23:39 302 1 gusting 2 14.4
2017-Oct-16 23:33 301 1 gusting 3 14.4
2017-Oct-16 23:29 300 1 gusting 3 15.0
2017-Oct-16 23:25 298 1 gusting 3 15.0
2017-Oct-16 23:19 298 1 gusting 3 14.4
2017-Oct-16 23:15 300 1 gusting 3 15.0
2017-Oct-16 23:08 298 1 gusting 3 15.0
2017-Oct-16 23:04 298 1 gusting 3 15.0
2017-Oct-16 22:58 293 1 gusting 2 15.0
2017-Oct-16 22:54 292 1 gusting 2 15.0
2017-Oct-16 22:48 288 1 gusting 2 15.6
2017-Oct-16 22:44 286 1 gusting 2 15.6
2017-Oct-16 22:38 281 1 gusting 2 15.6
2017-Oct-16 22:34 277 1 gusting 3 15.6
2017-Oct-16 22:29 273 0 gusting 3 15.6
2017-Oct-16 22:23 270 0 gusting 3 16.1
2017-Oct-16 22:19 269 1 gusting 3 16.1
2017-Oct-16 22:13 269 1 gusting 3 16.1
2017-Oct-16 22:09 260 1 gusting 3 16.1
2017-Oct-16 22:03 259 1 gusting 3 16.1
2017-Oct-16 21:59 258 0 gusting 3 16.7
2017-Oct-16 21:55 242 16.7
2017-Oct-16 21:49 242 0 gusting 3 16.7
2017-Oct-16 21:44 243 1 gusting 3 16.7
2017-Oct-16 21:38 242 0 gusting 3 17.2
2017-Oct-16 21:34 236 17.2
2017-Oct-16 21:28 217 17.2
2017-Oct-16 21:24 179 17.8
2017-Oct-16 21:18 178 17.8
2017-Oct-16 21:14 177 17.8
2017-Oct-16 21:08 175 18.3
2017-Oct-16 21:04 175 18.3
2017-Oct-16 21:00 175 18.3
2017-Oct-16 20:54 175 18.3
2017-Oct-16 20:47 175 18.3
2017-Oct-16 20:44 175 18.3
2017-Oct-16 20:38 175 18.9
2017-Oct-16 20:34 175 18.9
2017-Oct-16 20:30 175 18.9
2017-Oct-16 20:24 175 18.9
2017-Oct-16 20:19 175 18.9
2017-Oct-16 20:13 175 19.4
2017-Oct-16 20:09 175 19.4
2017-Oct-16 20:03 175 19.4
2017-Oct-16 19:59 175 19.4
2017-Oct-16 19:53 175 19.4
2017-Oct-16 19:49 175 19.4
2017-Oct-16 19:45 175 19.4
2017-Oct-16 19:39 175 19.4
2017-Oct-16 19:35 175 19.4
2017-Oct-16 19:28 175 19.4
2017-Oct-16 19:24 175 19.4
2017-Oct-16 19:18 175 19.4
2017-Oct-16 19:14 175 19.4
2017-Oct-16 19:08 175 19.4
2017-Oct-16 19:04 175 20.0
2017-Oct-16 18:59 175 19.4
2017-Oct-16 18:54 175 20.0
2017-Oct-16 18:47 175 20.0
2017-Oct-16 18:44 175 19.4
2017-Oct-16 18:40 175 20.0
2017-Oct-16 18:35 175 20.0
2017-Oct-16 18:30 175 20.0
2017-Oct-16 18:24 175 20.0
2017-Oct-16 18:20 176 20.0
2017-Oct-16 18:14 176 20.0
2017-Oct-16 18:10 177 20.0
2017-Oct-16 18:04 178 20.0
2017-Oct-16 17:59 178 20.0
2017-Oct-16 17:54 178 20.6
2017-Oct-16 17:49 178 20.6
2017-Oct-16 17:44 178 20.6
2017-Oct-16 17:39 178 20.6
2017-Oct-16 17:34 178 20.6
2017-Oct-16 17:29 178 20.6
2017-Oct-16 17:24 178 20.6
2017-Oct-16 17:19 178 20.6
2017-Oct-16 17:14 178 20.6
2017-Oct-16 17:09 178 20.6
2017-Oct-16 17:04 178 21.1
2017-Oct-16 16:59 178 21.1
2017-Oct-16 16:54 178 21.1
2017-Oct-16 16:49 178 21.1
2017-Oct-16 16:44 179 21.7
2017-Oct-16 16:39 182 21.7
2017-Oct-16 16:34 182 21.7
2017-Oct-16 16:29 183 21.7
2017-Oct-16 16:24 185 22.2
2017-Oct-16 16:20 184 22.2
2017-Oct-16 16:14 186 22.2
2017-Oct-16 16:09 186 22.2
2017-Oct-16 16:04 186 22.2
2017-Oct-16 15:59 186 22.8
2017-Oct-16 15:54 186 22.8
2017-Oct-16 15:49 186 22.8
2017-Oct-16 15:43 186 22.8
2017-Oct-16 15:38 186 23.3
2017-Oct-16 15:34 188 23.3
2017-Oct-16 15:28 190 23.3
2017-Oct-16 15:24 189 0 gusting 4 23.3
2017-Oct-16 15:18 182 0 gusting 6 23.3
2017-Oct-16 15:14 185 0 gusting 6 23.3
2017-Oct-16 15:10 190 0 gusting 6 23.3
2017-Oct-16 15:04 198 0 gusting 6 23.9
2017-Oct-16 14:59 194 1 gusting 6 23.9
2017-Oct-16 14:53 179 1 gusting 6 23.9
2017-Oct-16 14:49 152 1 gusting 6 23.9
2017-Oct-16 14:43 204 2 gusting 6 24.4
2017-Oct-16 14:39 186 1 gusting 6 24.4
2017-Oct-16 14:33 180 1 gusting 6 25.0
2017-Oct-16 14:29 186 0 gusting 6 25.0
2017-Oct-16 14:23 178 1 gusting 6 25.0
2017-Oct-16 14:19 192 2 gusting 6 25.0
2017-Oct-16 14:15 182 1 gusting 6 25.6
2017-Oct-16 14:08 171 1 gusting 6 25.6
2017-Oct-16 14:04 207 2 gusting 6 25.6
2017-Oct-16 13:58 161 1 gusting 6 26.1
2017-Oct-16 13:54 149 1 gusting 6 26.1
2017-Oct-16 13:48 205 1 gusting 6 26.1
2017-Oct-16 13:45 171 0 gusting 7 25.6
2017-Oct-16 13:38 188 1 gusting 7 26.1
2017-Oct-16 13:34 184 1 gusting 6 26.1
2017-Oct-16 13:30 141 1 gusting 6 26.1
2017-Oct-16 13:24 161 1 gusting 6 26.1
2017-Oct-16 13:20 171 2 gusting 7 26.7
2017-Oct-16 13:15 160 1 gusting 7 26.7
2017-Oct-16 13:10 183 1 gusting 7 26.7
2017-Oct-16 13:04 121 1 gusting 7 26.7
2017-Oct-16 13:00 169 1 gusting 7 27.2
2017-Oct-16 12:54 150 2 gusting 6 27.2
2017-Oct-16 12:49 153 3 gusting 7 27.2
2017-Oct-16 12:44 157 2 gusting 7 27.2
2017-Oct-16 12:39 175 0 gusting 7 27.2
2017-Oct-16 12:34 191 0 gusting 7 27.2
2017-Oct-16 12:29 165 1 gusting 6 26.7
2017-Oct-16 12:24 150 1 gusting 7 27.2
2017-Oct-16 12:19 160 2 gusting 7 27.2
2017-Oct-16 12:14 137 1 gusting 6 27.2
2017-Oct-16 12:09 145 1 gusting 8 27.8
2017-Oct-16 12:05 138 2 gusting 8 27.8
2017-Oct-16 11:59 119 2 gusting 8 27.8
2017-Oct-16 11:54 125 1 gusting 6 27.8
2017-Oct-16 11:49 137 2 gusting 6 27.8
2017-Oct-16 11:44 146 1 gusting 7 27.8
2017-Oct-16 11:38 151 1 gusting 7 27.8
2017-Oct-16 11:34 133 1 gusting 5 27.8
2017-Oct-16 11:30 154 1 gusting 5 27.8
2017-Oct-16 11:23 194 0 gusting 5 27.8
2017-Oct-16 11:19 146 0 gusting 5 27.8
2017-Oct-16 11:13 217 1 gusting 4 27.2
2017-Oct-16 11:09 215 1 gusting 4 27.2
2017-Oct-16 11:03 212 0 gusting 4 27.8
2017-Oct-16 10:59 119 27.8
2017-Oct-16 10:55 055 27.8
2017-Oct-16 10:49 055 27.8
2017-Oct-16 10:45 019 27.8
2017-Oct-16 10:39 306 27.2
2017-Oct-16 10:34 305 0 gusting 4 27.2
2017-Oct-16 10:28 079 0 gusting 5 27.2
2017-Oct-16 10:24 026 27.2
2017-Oct-16 10:18 026 1 gusting 6 26.7
2017-Oct-16 10:15 026 1 gusting 5 26.1
2017-Oct-16 10:10 283 1 gusting 5 26.1
2017-Oct-16 10:04 280 2 gusting 6 25.6
2017-Oct-16 10:00 288 2 gusting 6 25.6
2017-Oct-16 09:53 293 2 gusting 7 25.6
2017-Oct-16 09:49 334 2 gusting 6 25.6
2017-Oct-16 09:44 323 1 gusting 7 25.0
2017-Oct-16 09:39 314 4 gusting 7 25.0
2017-Oct-16 09:35 24.4
2017-Oct-16 09:29 300 3 gusting 7 24.4
2017-Oct-16 09:24 284 4 gusting 8 23.9
2017-Oct-16 09:19 269 6 gusting 9 23.9
2017-Oct-16 09:14 302 5 gusting 9 23.9
2017-Oct-16 09:08 309 5 gusting 9 23.3
2017-Oct-16 09:04 269 5 gusting 9 23.3
2017-Oct-16 08:58 300 5 gusting 10 22.8
2017-Oct-16 08:54 265 5 gusting 10 22.8
2017-Oct-16 08:48 279 6 gusting 11 22.8
2017-Oct-16 08:44 275 6 gusting 11 22.8
2017-Oct-16 08:38 275 5 gusting 11 22.8
2017-Oct-16 08:34 281 5 gusting 11 22.2
2017-Oct-16 08:28 275 5 gusting 10 22.2
2017-Oct-16 08:24 281 5 gusting 10 22.2
2017-Oct-16 08:18 280 6 gusting 13 21.7
2017-Oct-16 08:14 281 6 gusting 13 21.7
2017-Oct-16 08:10 258 6 gusting 12 21.7
2017-Oct-16 08:04 267 6 gusting 11 21.7
2017-Oct-16 08:00 342 6 gusting 10 21.7
2017-Oct-16 07:54 284 6 gusting 10 21.1
2017-Oct-16 07:50 275 6 gusting 10 21.1
2017-Oct-16 07:44 287 6 gusting 11 20.6
2017-Oct-16 07:40 306 6 gusting 11 20.6
2017-Oct-16 07:33 263 5 gusting 10 20.6
2017-Oct-16 07:29 295 4 gusting 10 20.0
2017-Oct-16 07:25 277 4 gusting 10 20.0
2017-Oct-16 07:19 279 3 gusting 8 19.4
2017-Oct-16 07:14 274 3 gusting 8 19.4
2017-Oct-16 07:09 304 2 gusting 7 18.9
2017-Oct-16 07:04 298 2 gusting 6 18.3
2017-Oct-16 06:58 284 2 gusting 6 17.8
2017-Oct-16 06:54 282 1 gusting 6 17.8
2017-Oct-16 06:50 306 1 gusting 4 17.2
2017-Oct-16 06:43 315 0 gusting 3 16.7
2017-Oct-16 06:39 316 1 gusting 3 16.7
2017-Oct-16 06:33 316 2 gusting 3 16.1
2017-Oct-16 06:29 317 1 gusting 3 16.1
2017-Oct-16 06:23 315 15.6
2017-Oct-16 06:19 298 15.6
2017-Oct-16 06:13 295 15.0
2017-Oct-16 06:09 295 15.0
2017-Oct-16 06:03 294 14.4
2017-Oct-16 05:58 294 14.4
2017-Oct-16 05:54 295 13.9
2017-Oct-16 05:48 296 13.9
2017-Oct-16 05:44 296 13.9
2017-Oct-16 05:38 296 13.3
2017-Oct-16 05:34 296 13.3
2017-Oct-16 05:28 296 13.3
2017-Oct-16 05:25 295 12.8
2017-Oct-16 05:18 295 12.8
2017-Oct-16 05:14 295 12.8
2017-Oct-16 05:10 295 12.8
2017-Oct-16 05:04 295 12.8
2017-Oct-16 04:58 295 12.8
2017-Oct-16 04:54 295 12.8
2017-Oct-16 04:48 296 12.8
2017-Oct-16 04:44 295 12.8
2017-Oct-16 04:40 295 12.8
2017-Oct-16 04:35 296 0 gusting 1 12.8
2017-Oct-16 04:30 296 0 gusting 2 13.3
2017-Oct-16 04:25 295 1 gusting 3 13.3
2017-Oct-16 04:20 295 1 gusting 3 13.3
2017-Oct-16 04:15 295 1 gusting 3 13.3
2017-Oct-16 04:10 281 1 gusting 5 13.3
2017-Oct-16 04:05 271 2 gusting 6 13.3
2017-Oct-16 03:59 275 2 gusting 6 13.9
2017-Oct-16 03:54 279 1 gusting 5 13.9
2017-Oct-16 03:49 290 13.9
2017-Oct-16 03:44 311 0 gusting 3 13.9
2017-Oct-16 03:40 325 1 gusting 4 13.9
2017-Oct-16 03:35 325 1 gusting 4 13.9
2017-Oct-16 03:30 330 2 gusting 4 13.9
2017-Oct-16 03:24 334 2 gusting 4 13.9
2017-Oct-16 03:19 315 3 gusting 6 13.9
2017-Oct-16 03:14 313 2 gusting 6 13.9
2017-Oct-16 03:10 298 1 gusting 6 13.3
2017-Oct-16 03:05 306 2 gusting 4 13.9
2017-Oct-16 02:59 296 2 gusting 6 13.9
2017-Oct-16 02:54 312 2 gusting 6 13.9
2017-Oct-16 02:49 300 2 gusting 6 13.9
2017-Oct-16 02:44 313 2 gusting 5 13.3
2017-Oct-16 02:39 306 2 gusting 5 13.3
2017-Oct-16 02:34 313 1 gusting 3 13.3
2017-Oct-16 02:29 313 1 gusting 3 13.3
2017-Oct-16 02:25 315 1 gusting 4 13.3
2017-Oct-16 02:19 313 1 gusting 4 13.3
2017-Oct-16 02:14 321 1 gusting 4 13.3
2017-Oct-16 02:08 299 1 gusting 3 13.3
2017-Oct-16 02:04 298 2 gusting 5 13.3
2017-Oct-16 02:00 312 2 gusting 5 13.3
2017-Oct-16 01:54 320 3 gusting 6 13.3
2017-Oct-16 01:50 318 3 gusting 6 13.3
2017-Oct-16 01:43 309 2 gusting 6 13.3
2017-Oct-16 01:39 298 2 gusting 6 13.3
2017-Oct-16 01:33 299 2 gusting 6 13.3
2017-Oct-16 01:29 299 3 gusting 6 13.3
2017-Oct-16 01:25 306 3 gusting 6 13.3
2017-Oct-16 01:19 292 2 gusting 6 13.3
2017-Oct-16 01:14 277 2 gusting 6 13.3
2017-Oct-16 01:08 296 2 gusting 6 13.3
2017-Oct-16 01:04 300 2 gusting 4 13.3
2017-Oct-16 00:58 300 2 gusting 4 13.3
2017-Oct-16 00:54 300 2 gusting 4 13.9
2017-Oct-16 00:48 304 1 gusting 6 13.9
2017-Oct-16 00:44 300 1 gusting 6 13.9
2017-Oct-16 00:38 297 1 gusting 3 13.9
2017-Oct-16 00:34 300 2 gusting 3 13.9
2017-Oct-16 00:28 288 1 gusting 3 13.9
2017-Oct-16 00:24 295 1 gusting 2 13.9
2017-Oct-16 00:20 295 1 gusting 3 13.9
2017-Oct-16 00:14 295 1 gusting 4 13.9
2017-Oct-16 00:09 291 0 gusting 4 14.4
2017-Oct-16 00:03 283 14.4
2017-Oct-15 23:59 283 0 gusting 2 14.4
2017-Oct-15 23:53 282 0 gusting 2 14.4
2017-Oct-15 23:49 280 0 gusting 2 14.4
2017-Oct-15 23:43 278 0 gusting 5 14.4
2017-Oct-15 23:39 278 0 gusting 5 14.4
2017-Oct-15 23:33 243 14.4
2017-Oct-15 23:29 243 14.4
2017-Oct-15 23:24 243 14.4
2017-Oct-15 23:19 243 14.4
2017-Oct-15 23:13 243 15.0
2017-Oct-15 23:09 242 15.0
2017-Oct-15 23:03 242 15.0
2017-Oct-15 22:59 243 15.0
2017-Oct-15 22:55 243 15.0
2017-Oct-15 22:49 243 15.0
2017-Oct-15 22:45 242 15.0
2017-Oct-15 22:39 243 15.6
2017-Oct-15 22:33 243 15.6
2017-Oct-15 22:29 242 15.6
2017-Oct-15 22:25 243 15.6
2017-Oct-15 22:19 243 15.6
2017-Oct-15 22:15 243 0 gusting 2 15.6
2017-Oct-15 22:08 243 0 gusting 2 15.6
2017-Oct-15 22:04 134 0 gusting 2 16.1
2017-Oct-15 21:58 130 16.1
2017-Oct-15 21:54 122 16.1
2017-Oct-15 21:48 122 16.1
2017-Oct-15 21:44 122 16.1
2017-Oct-15 21:38 122 16.7
2017-Oct-15 21:34 122 16.7
2017-Oct-15 21:28 122 16.7
2017-Oct-15 21:25 122 16.7
2017-Oct-15 21:18 122 16.7
2017-Oct-15 21:14 122 17.2
2017-Oct-15 21:10 122 17.2
2017-Oct-15 21:04 122 17.2
2017-Oct-15 20:59 122 17.2
2017-Oct-15 20:54 122 17.2
2017-Oct-15 20:49 122 17.2
2017-Oct-15 20:44 122 17.8
2017-Oct-15 20:38 122 17.8
2017-Oct-15 20:34 122 17.8
2017-Oct-15 20:28 122 17.8
2017-Oct-15 20:24 122 17.8
2017-Oct-15 20:20 122 17.8
2017-Oct-15 20:15 122 17.8
2017-Oct-15 20:09 122 17.8
2017-Oct-15 20:04 122 17.8
2017-Oct-15 19:59 122 17.8
2017-Oct-15 19:54 122 17.8
2017-Oct-15 19:49 122 17.8
2017-Oct-15 19:44 122 17.8
2017-Oct-15 19:40 122 18.3
2017-Oct-15 19:34 122 18.3
2017-Oct-15 19:30 122 18.3
2017-Oct-15 19:24 122 18.3
2017-Oct-15 19:20 122 18.3
2017-Oct-15 19:13 122 18.3
2017-Oct-15 19:09 122 18.3
2017-Oct-15 19:03 122 18.3